Regional Weather Roundup
Issued by NWS

Home | Current Version | Previous Version | Graphics & Text | Print | Product List | Glossary On
Versions: 1 2 3 4 5 6 7 8 9 10 11 12 13 14 15 16 17 18 19 20 21 22 23 24 25 26 27 28 29 30 31 32 33 34 35 36 37 38 39 40 41 42 43 44 45 46 47 48 49 50
000
ASUS43 KDTX 262010
RWRMI
MICHIGAN HOURLY REGIONAL WEATHER ROUNDUP
NATIONAL WEATHER SERVICE DETROIT/PONTIAC MI
400 PM EDT TUE JUL 26 2016

NOTE: "FAIR" INDICATES FEW OR NO CLOUDS BELOW 12,000 FEET WITH NO
SIGNIFICANT WEATHER AND/OR OBSTRUCTION TO VISIBILITY.

MIZ047>049-052>055-059>063-066>070-074>076-081>083-262100-
SOUTHEAST LOWER MICHIGAN

CITY           SKY/WX    TMP DP  RH WIND       PRES   REMARKS
ADRIAN         SUNNY     86  59  39 S9        30.03F
ALMA           MOSUNNY   87  59  38 W6        30.02F
ANN ARBOR      SUNNY     86  58  38 VRB5      30.01F
BAD AXE        MOSUNNY   85  56  37 NW7       30.01F
CARO           MOSUNNY   88  61  40 SW9       30.00F
DETROIT CITY   PTSUNNY   82  60  47 SE7       30.01F
DETROIT        PTSUNNY   87  62  43 S10G16    30.01F
FLINT          PTSUNNY   87  59  38 VRB7      30.01F
GROSSE ILE     SUNNY     81  67  62 S12       30.01F
HOWELL         MOSUNNY   85  56  37 W7        30.03F

CITY           SKY/WX    TMP DP  RH WIND       PRES   REMARKS
JACKSON        MOSUNNY   85  59  41 W6        30.03F
LAMBERTVILLE   SUNNY     85  57  38 SE3       30.03F
LANSING        SUNNY     87  59  38 W8        30.03F
LAPEER         FAIR      85  56  36 W5        30.02F
MASON          MOSUNNY   85  60  43 SW3       30.03F
MONROE         SUNNY     83  64  53 S7G16     30.02F
MT. CLEMENS    MOSUNNY   83  64  53 E9        30.00F
PONTIAC        MOSUNNY   85  58  39 W5        30.02F
PORT HURON     MOSUNNY   81  63  54 CALM      30.01F
TRI CITIES     MOSUNNY   88  63  43 W10       30.00F
MIDLAND        FAIR      87  56  35 W7        29.99F
TROY           PTSUNNY   89  52  28 W5        30.03F
SAGINAW HB     PTSUNNY   86  61  42 SW12G17   29.99F
$$
MIZ043>046-050>051-056>058-064>065-071>073-077>080-262100-
SOUTHWEST LOWER MICHIGAN

CITY           SKY/WX    TMP DP  RH WIND       PRES   REMARKS
BATTLE CREEK   MOSUNNY   82  61  48 N3        30.04F
BENTON HARBOR  SUNNY     82  63  52 NW8       30.04F
BIG RAPIDS     MOSUNNY   85  57  38 NW3       30.02F
COLDWATER      SUNNY     83  57  41 CALM      30.04F
FREMONT        FAIR      85  61  43 SW10      30.02F
HOLLAND        SUNNY     83  67  58 W10       30.05F
GRAND RAPIDS   PTSUNNY   83  62  49 SW10      30.02F
IONIA          FAIR      86  59  39 S5        30.02F
KALAMAZOO      MOSUNNY   83  59  44 CALM      30.03F
LUDINGTON      SUNNY     80  62  53 SW9       30.02F
MARSHALL       PTSUNNY   85  61  44 S5        30.03F
MOUNT PLEASANT MOSUNNY   87  58  36 NW7       30.01S
MUSKEGON       MOSUNNY   83  65  54 W9        30.04S
SOUTH HAVEN    SUNNY     82  64  53 NW8       30.04F
$$
MIZ016>042-262100-
NORTHERN LOWER MICHIGAN

CITY           SKY/WX    TMP DP  RH WIND       PRES   REMARKS
ALPENA         PTSUNNY   87  57  35 E13       29.97F
BEAVER ISLAND  SUNNY     80  65  60 SW14G20   29.98F
BELLAIRE       SUNNY     85  58  38 SW8       29.99S
CADILLAC       MOSUNNY   85  59  40 SW7       30.03F
CHARLEVOIX     SUNNY     85  60  42 W14       30.02S
FRANKFORT      SUNNY     82  61  49 SW8       30.02S
GAYLORD        SUNNY     85  54  34 W12       30.01F
GRAYLING       SUNNY     89  54  30 NW9G17    30.01F
HARBOR SPRINGS SUNNY     83  62  48 W10       29.99S
HOUGHTON LAKE  MOSUNNY   86  58  38 SW9       30.02F
MANISTEE       SUNNY     84  60  44 SW10      30.01F
OSCODA         MOSUNNY   84  59  42 SE12G22   29.97F
PELLSTON       SUNNY     84  60  44 W12       29.98F
ROGERS CITY    SUNNY     79  62  55 N6        29.98S
TRAVERSE CITY  MOSUNNY   90  56  31 W15G21    29.97S
$$
MIZ007>008-015-262100-
EASTERN UPPER MICHIGAN

CITY           SKY/WX    TMP DP  RH WIND       PRES   REMARKS
KINROSS        MOSUNNY   85  63  47 SW10G16   29.95F
MACKINAC ISLAN SUNNY     77  62  59 SW10G20   29.97F
NEWBERRY       PTSUNNY   88  59  37 SW10      29.94F
S. S. MARIE    SUNNY     86  62  44 W8        29.93F
MUNISING         N/A     77  67  71 CALM      29.92F
$$
MIZ004>006-011>014-085-262100-
CENTRAL UPPER MICHIGAN

CITY           SKY/WX    TMP DP  RH WIND       PRES   REMARKS
MANISTIQUE     SUNNY     76  70  81 S14       29.95S
ESCANABA       MOSUNNY   81  68  65 SW16G23   29.93F
MENOMINEE      MOSUNNY  N/A N/A N/A W7G16     29.97F
SAWYER-GWINN   MOSUNNY   88  63  42 W14       29.94F
$$
MIZ001>003-009>011-084-262100-
WESTERN UPPER MICHIGAN

CITY           SKY/WX    TMP DP  RH WIND       PRES   REMARKS
IRON MOUNTAIN  SUNNY     90  60  36 W10       29.95F
HOUGHTON       MOSUNNY   80  65  59 NW18      29.92R
COPPER HARBOR    N/A     71  65  81 NE6       29.91S
IRONWOOD       MOSUNNY   82  64  54 W9        29.92S
$$

ABBREVIATIONS USED IN REMARKS
   TC - TEMPERATURE IN CELSIUS
  WCI - WIND CHILL INDEX
   HX - HEAT INDEX
  VSB - VISIBILITY





USA.gov is the U.S. government's official web portal to all federal, state and local government web resources and services.